| time (UTC) | temp C | wind direction | speed KPH | gust KPH | rain 1hr cm | rain 24hr cm | rain mn cm | humidity % | barometer mb |
| 20260507124905 | 10 | 185 | 9.7 | 12.9 | 0.00 | 0.00 | 0.00 | 77 | 1013.2 |
| 20260507124406 | 10 | 225 | 8.0 | 11.3 | 0.00 | 0.00 | 0.00 | 77 | 1013.2 |
| 20260507123406 | 10 | 182 | 9.7 | 11.3 | 0.00 | 0.00 | 0.00 | 77 | 1013.1 |
| 20260507122406 | 11 | 139 | 3.2 | 9.7 | 0.00 | 0.00 | 0.00 | 76 | 1013.0 |
| 20260507121906 | 11 | 153 | 8.0 | 12.9 | 0.00 | 0.00 | 0.00 | 76 | 1012.9 |
| 20260507121406 | 11 | 163 | 6.4 | 8.0 | 0.00 | 0.00 | 0.00 | 75 | 1012.9 |
| 20260507115906 | 11 | 183 | 3.2 | 8.0 | 0.00 | 0.00 | 0.00 | 73 | 1012.8 |
| 20260507115406 | 11 | 144 | 0.0 | 1.6 | 0.00 | 0.00 | 0.00 | 73 | 1012.7 |
| 20260507114906 | 11 | 144 | 1.6 | 3.2 | 0.00 | 0.00 | 0.00 | 73 | 1012.7 |
| 20260507114405 | 11 | 141 | 4.8 | 9.7 | 0.00 | 0.00 | 0.00 | 72 | 1012.7 |
| 20260507113906 | 12 | 181 | 8.0 | 11.3 | 0.00 | 0.00 | 0.00 | 72 | 1012.5 |
| 20260507112406 | 12 | 161 | 1.6 | 8.0 | 0.00 | 0.00 | 0.00 | 70 | 1012.5 |
| 20260507111907 | 12 | 131 | 8.0 | 12.9 | 0.00 | 0.00 | 0.00 | 70 | 1012.5 |
| 20260507111405 | 12 | 157 | 8.0 | 14.5 | 0.00 | 0.00 | 0.00 | 70 | 1012.3 |
| 20260507110905 | 12 | 218 | 11.3 | 16.1 | 0.00 | 0.00 | 0.00 | 71 | 1012.3 |
| 20260507105906 | 12 | 207 | 3.2 | 4.8 | 0.00 | 0.00 | 0.00 | 70 | 1012.3 |
| 20260507105405 | 12 | 189 | 8.0 | 8.0 | 0.00 | 0.00 | 0.00 | 69 | 1012.2 |
| 20260507104405 | 13 | 174 | 6.4 | 11.3 | 0.00 | 0.00 | 0.00 | 68 | 1012.3 |
| 20260507103905 | 13 | 181 | 9.7 | 11.3 | 0.00 | 0.00 | 0.00 | 68 | 1012.2 |
| 20260507103406 | 13 | 128 | 6.4 | 11.3 | 0.00 | 0.00 | 0.00 | 68 | 1012.0 |
| 20260507102905 | 13 | 188 | 4.8 | 8.0 | 0.00 | 0.00 | 0.00 | 67 | 1012.0 |
| 20260507102406 | 13 | 217 | 6.4 | 9.7 | 0.00 | 0.00 | 0.00 | 67 | 1012.0 |
| 20260507101906 | 13 | 173 | 8.0 | 9.7 | 0.00 | 0.00 | 0.00 | 66 | 1011.9 |
| 20260507101405 | 13 | 188 | 4.8 | 8.0 | 0.00 | 0.00 | 0.00 | 65 | 1011.9 |
| 20260507100905 | 13 | 169 | 4.8 | 9.7 | 0.00 | 0.00 | 0.00 | 65 | 1011.9 |
| 20260507100405 | 13 | 170 | 6.4 | 9.7 | 0.00 | 0.00 | 0.00 | 65 | 1011.9 |
| 20260507095905 | 13 | 208 | 9.7 | 12.9 | 0.00 | 0.00 | 0.00 | 65 | 1011.9 |
| 20260507095405 | 13 | 195 | 9.7 | 14.5 | 0.00 | 0.00 | 0.00 | 66 | 1011.7 |
| 20260507094905 | 13 | 179 | 11.3 | 14.5 | 0.00 | 0.00 | 0.00 | 66 | 1011.7 |
| 20260507094405 | 13 | 197 | 11.3 | 12.9 | 0.00 | 0.00 | 0.00 | 65 | 1011.7 |
| 20260507093906 | 14 | 205 | 8.0 | 11.3 | 0.00 | 0.00 | 0.00 | 64 | 1011.6 |
| 20260507093405 | 15 | 168 | 8.0 | 14.5 | 0.00 | 0.00 | 0.00 | 62 | 1011.5 |
| 20260507092908 | 14 | 139 | 11.3 | 19.3 | 0.00 | 0.00 | 0.00 | 62 | 1011.4 |
| 20260507092405 | 14 | 134 | 11.3 | 19.3 | 0.00 | 0.00 | 0.00 | 64 | 1011.4 |
| 20260507091905 | 15 | 156 | 9.7 | 16.1 | 0.00 | 0.00 | 0.00 | 63 | 1011.4 |
| 20260507091405 | 15 | 217 | 8.0 | 11.3 | 0.00 | 0.00 | 0.00 | 63 | 1011.3 |
| 20260507090905 | 15 | 147 | 4.8 | 11.3 | 0.00 | 0.00 | 0.00 | 62 | 1011.4 |
| 20260507090405 | 15 | 181 | 6.4 | 9.7 | 0.00 | 0.00 | 0.00 | 61 | 1011.5 |
| 20260507085905 | 15 | 178 | 4.8 | 4.8 | 0.00 | 0.00 | 0.00 | 61 | 1011.4 |
| 20260507085406 | 15 | 127 | 0.0 | 4.8 | 0.00 | 0.00 | 0.00 | 61 | 1011.4 |
| 20260507084906 | 15 | 126 | 3.2 | 8.0 | 0.00 | 0.00 | 0.00 | 61 | 1011.4 |
| 20260507084406 | 15 | 121 | 4.8 | 9.7 | 0.00 | 0.00 | 0.00 | 60 | 1011.4 |
| 20260507083906 | 16 | 142 | 0.0 | 3.2 | 0.00 | 0.00 | 0.00 | 60 | 1011.5 |
| 20260507083405 | 16 | 141 | 4.8 | 9.7 | 0.00 | 0.00 | 0.00 | 60 | 1011.3 |
| 20260507082405 | 16 | 172 | 1.6 | 4.8 | 0.00 | 0.00 | 0.00 | 59 | 1011.4 |
| 20260507081905 | 16 | 187 | 0.0 | 4.8 | 0.00 | 0.00 | 0.00 | 58 | 1011.4 |
| 20260507081405 | 17 | 188 | 1.6 | 4.8 | 0.00 | 0.00 | 0.00 | 56 | 1011.4 |
| 20260507080905 | 17 | 195 | 3.2 | 4.8 | 0.00 | 0.00 | 0.00 | 57 | 1011.3 |
| 20260507075905 | 17 | 183 | 3.2 | 4.8 | 0.00 | 0.00 | 0.00 | 58 | 1011.3 |
| 20260507075405 | 17 | 198 | 0.0 | 4.8 | 0.00 | 0.00 | 0.00 | 58 | 1011.3 |
| 20260507074905 | 17 | 164 | 4.8 | 8.0 | 0.00 | 0.00 | 0.00 | 57 | 1011.3 |
| 20260507074405 | 17 | 171 | 1.6 | 4.8 | 0.00 | 0.00 | 0.00 | 57 | 1011.2 |
| 20260507073905 | 18 | 173 | 3.2 | 4.8 | 0.00 | 0.00 | 0.00 | 57 | 1011.2 |
| 20260507073405 | 18 | 173 | 1.6 | 4.8 | 0.00 | 0.00 | 0.00 | 57 | 1011.2 |
| 20260507072405 | 18 | 248 | 3.2 | 4.8 | 0.00 | 0.00 | 0.00 | 58 | 1011.0 |
| 20260507071405 | 18 | 139 | 3.2 | 4.8 | 0.00 | 0.00 | 0.00 | 56 | 1010.7 |
| 20260507070905 | 18 | 137 | 1.6 | 4.8 | 0.00 | 0.00 | 0.00 | 57 | 1010.7 |
| 20260507070405 | 18 | 126 | 3.2 | 4.8 | 0.00 | 0.00 | 0.00 | 59 | 1010.6 |
| 20260507065905 | 18 | 119 | 4.8 | 8.0 | 0.00 | 0.00 | 0.00 | 59 | 1010.6 |
| 20260507065405 | 18 | 125 | 3.2 | 4.8 | 0.00 | 0.00 | 0.00 | 61 | 1010.6 |
| 20260507064405 | 18 | 32 | 1.6 | 4.8 | 0.00 | 0.00 | 0.00 | 61 | 1010.6 |
| 20260507063906 | 18 | 48 | 0.0 | 4.8 | 0.00 | 0.00 | 0.00 | 60 | 1010.5 |
| 20260507063405 | 18 | 96 | 3.2 | 9.7 | 0.00 | 0.00 | 0.00 | 61 | 1010.3 |
| 20260507062905 | 18 | 156 | 3.2 | 4.8 | 0.00 | 0.00 | 0.00 | 59 | 1010.3 |
| 20260507062405 | 18 | 327 | 1.6 | 4.8 | 0.00 | 0.00 | 0.00 | 62 | 1010.3 |
| 20260507061905 | 18 | 5 | 0.0 | 3.2 | 0.00 | 0.00 | 0.00 | 62 | 1010.2 |
| 20260507061405 | 18 | 9 | 3.2 | 4.8 | 0.00 | 0.00 | 0.00 | 62 | 1010.1 |
| 20260507060905 | 18 | 21 | 1.6 | 3.2 | 0.00 | 0.00 | 0.00 | 61 | 1010.2 |
| 20260507060406 | 18 | 26 | 0.0 | 4.8 | 0.00 | 0.00 | 0.00 | 59 | 1010.2 |
| 20260507055905 | 18 | 24 | 0.0 | 3.2 | 0.00 | 0.00 | 0.00 | 60 | 1010.2 |
| 20260507055405 | 18 | 22 | 0.0 | 3.2 | 0.00 | 0.00 | 0.00 | 60 | 1010.3 |
| 20260507054905 | 18 | 23 | 1.6 | 4.8 | 0.00 | 0.00 | 0.00 | 56 | 1010.2 |
| 20260507053905 | 18 | 143 | 3.2 | 14.5 | 0.00 | 0.00 | 0.00 | 64 | 1010.3 |
| 20260507053405 | 18 | 126 | 8.0 | 14.5 | 0.00 | 0.00 | 0.00 | 63 | 1010.1 |
| 20260507052405 | 18 | 166 | 3.2 | 8.0 | 0.00 | 0.00 | 0.00 | 64 | 1010.1 |
| 20260507051905 | 18 | 194 | 4.8 | 9.7 | 0.00 | 0.00 | 0.00 | 64 | 1010.0 |
| 20260507051405 | 18 | 190 | 8.0 | 12.9 | 0.00 | 0.00 | 0.00 | 63 | 1010.0 |
| 20260507050906 | 18 | 180 | 8.0 | 11.3 | 0.00 | 0.00 | 0.00 | 64 | 1009.9 |
| 20260507050406 | 18 | 207 | 8.0 | 11.3 | 0.00 | 0.00 | 0.00 | 63 | 1009.9 |
| 20260507045906 | 18 | 213 | 4.8 | 9.7 | 0.00 | 0.00 | 0.00 | 63 | 1009.9 |
| 20260507045406 | 18 | 200 | 3.2 | 4.8 | 0.00 | 0.00 | 0.00 | 63 | 1009.9 |
| 20260507044906 | 18 | 160 | 3.2 | 8.0 | 0.00 | 0.00 | 0.00 | 63 | 1009.9 |
| 20260507043906 | 18 | 167 | 8.0 | 12.9 | 0.00 | 0.00 | 0.00 | 63 | 1010.0 |
| 20260507043406 | 19 | 153 | 8.0 | 16.1 | 0.00 | 0.00 | 0.00 | 62 | 1010.0 |
| 20260507042906 | 19 | 140 | 9.7 | 14.5 | 0.00 | 0.00 | 0.00 | 61 | 1010.0 |
| 20260507042406 | 19 | 170 | 8.0 | 14.5 | 0.00 | 0.00 | 0.00 | 61 | 1010.0 |
| 20260507041906 | 19 | 211 | 6.4 | 14.5 | 0.00 | 0.00 | 0.00 | 60 | 1009.9 |
| 20260507041406 | 19 | 175 | 8.0 | 14.5 | 0.00 | 0.00 | 0.00 | 60 | 1009.9 |
| 20260507040906 | 20 | 174 | 1.6 | 8.0 | 0.00 | 0.00 | 0.00 | 59 | 1009.9 |
| 20260507040407 | 20 | 158 | 6.4 | 11.3 | 0.00 | 0.00 | 0.00 | 59 | 1009.9 |
| 20260507035906 | 20 | 166 | 4.8 | 12.9 | 0.00 | 0.00 | 0.00 | 58 | 1009.8 |
| 20260507035406 | 20 | 195 | 8.0 | 9.7 | 0.00 | 0.00 | 0.00 | 57 | 1009.8 |
| 20260507034906 | 20 | 166 | 4.8 | 9.7 | 0.00 | 0.00 | 0.00 | 57 | 1009.8 |
| 20260507034406 | 20 | 187 | 8.0 | 11.3 | 0.00 | 0.00 | 0.00 | 56 | 1009.8 |
| 20260507033906 | 20 | 210 | 4.8 | 8.0 | 0.00 | 0.00 | 0.00 | 57 | 1009.7 |
| 20260507032906 | 20 | 192 | 8.0 | 8.0 | 0.00 | 0.00 | 0.00 | 57 | 1009.5 |
| 20260507032406 | 20 | 207 | 6.4 | 9.7 | 0.00 | 0.00 | 0.00 | 56 | 1009.4 |
| 20260507031906 | 21 | 199 | 6.4 | 11.3 | 0.00 | 0.00 | 0.00 | 57 | 1009.4 |
| 20260507031406 | 21 | 180 | 9.7 | 12.9 | 0.00 | 0.00 | 0.00 | 56 | 1009.4 |
| 20260507030906 | 21 | 198 | 3.2 | 9.7 | 0.00 | 0.00 | 0.00 | 55 | 1009.3 |
| 20260507025405 | 21 | 176 | 8.0 | 12.9 | 0.00 | 0.00 | 0.00 | 53 | 1009.3 |
| 20260507024905 | 22 | 183 | 8.0 | 11.3 | 0.00 | 0.00 | 0.00 | 53 | 1009.3 |
| 20260507023906 | 22 | 164 | 8.0 | 9.7 | 0.00 | 0.00 | 0.00 | 52 | 1009.2 |
| 20260507023405 | 22 | 198 | 6.4 | 9.7 | 0.00 | 0.00 | 0.00 | 52 | 1009.2 |
| 20260507022905 | 22 | 134 | 9.7 | 14.5 | 0.00 | 0.00 | 0.00 | 50 | 1009.1 |
| 20260507022406 | 22 | 206 | 4.8 | 9.7 | 0.00 | 0.00 | 0.00 | 50 | 1009.2 |
| 20260507021905 | 23 | 177 | 9.7 | 14.5 | 0.00 | 0.00 | 0.00 | 48 | 1009.2 |
| 20260507021406 | 23 | 178 | 8.0 | 11.3 | 0.00 | 0.00 | 0.00 | 48 | 1009.2 |
| 20260507020906 | 23 | 187 | 8.0 | 12.9 | 0.00 | 0.00 | 0.00 | 47 | 1009.2 |
| 20260507020406 | 24 | 153 | 8.0 | 11.3 | 0.00 | 0.00 | 0.00 | 46 | 1009.2 |
| 20260507015905 | 24 | 145 | 4.8 | 4.8 | 0.00 | 0.00 | 0.00 | 46 | 1009.2 |
| 20260507015405 | 25 | 170 | 3.2 | 4.8 | 0.00 | 0.00 | 0.00 | 43 | 1009.2 |
| 20260507014906 | 25 | 220 | 3.2 | 4.8 | 0.00 | 0.00 | 0.00 | 44 | 1009.3 |
| 20260507014405 | 25 | 265 | 3.2 | 8.0 | 0.00 | 0.00 | 0.00 | 43 | 1009.2 |
| 20260507013905 | 25 | 230 | 4.8 | 8.0 | 0.00 | 0.00 | 0.00 | 43 | 1009.2 |
| 20260507013406 | 25 | 248 | 4.8 | 11.3 | 0.00 | 0.00 | 0.00 | 41 | 1009.3 |
| 20260507012905 | 25 | 239 | 3.2 | 4.8 | 0.00 | 0.00 | 0.00 | 40 | 1009.2 |
| 20260507012406 | 25 | 285 | 1.6 | 4.8 | 0.00 | 0.00 | 0.00 | 39 | 1009.3 |
| 20260507011905 | 25 | 298 | 3.2 | 4.8 | 0.00 | 0.00 | 0.00 | 39 | 1009.2 |
| 20260507011406 | 26 | 302 | 6.4 | 12.9 | 0.00 | 0.00 | 0.00 | 38 | 1009.2 |
| 20260507010905 | 26 | 345 | 4.8 | 14.5 | 0.00 | 0.00 | 0.00 | 38 | 1009.2 |
| 20260507005905 | 26 | 309 | 4.8 | 12.9 | 0.00 | 0.00 | 0.00 | 38 | 1009.3 |
| 20260507005406 | 26 | 349 | 9.7 | 14.5 | 0.00 | 0.00 | 0.00 | 38 | 1009.3 |
| 20260507004905 | 26 | 331 | 9.7 | 20.9 | 0.00 | 0.00 | 0.00 | 39 | 1009.3 |
| 20260507004405 | 26 | 322 | 4.8 | 12.9 | 0.00 | 0.00 | 0.00 | 39 | 1009.3 |
| 20260507003905 | 26 | 286 | 4.8 | 12.9 | 0.00 | 0.00 | 0.00 | 38 | 1009.4 |
| 20260507003405 | 26 | 306 | 8.0 | 14.5 | 0.00 | 0.00 | 0.00 | 38 | 1009.4 |
| 20260507002905 | 27 | 321 | 8.0 | 16.1 | 0.00 | 0.00 | 0.00 | 38 | 1009.4 |
| 20260507002405 | 27 | 282 | 8.0 | 14.5 | 0.00 | 0.00 | 0.00 | 37 | 1009.4 |
| 20260507001906 | 27 | 289 | 6.4 | 20.9 | 0.00 | 0.00 | 0.00 | 38 | 1009.4 |
| 20260507001406 | 27 | 323 | 6.4 | 19.3 | 0.00 | 0.00 | 0.00 | 38 | 1009.3 |
| 20260507000905 | 27 | 329 | 9.7 | 16.1 | 0.00 | 0.00 | 0.00 | 38 | 1009.2 |
| 20260507000406 | 27 | 331 | 3.2 | 19.3 | 0.00 | 0.00 | 0.00 | 39 | 1009.3 |
| 20260506235906 | 27 | 354 | 9.7 | 22.5 | 0.00 | 0.00 | 0.00 | 38 | 1009.2 |
| 20260506235405 | 27 | 335 | 9.7 | 22.5 | 0.00 | 0.00 | 0.00 | 38 | 1009.3 |
| 20260506234905 | 27 | 326 | 8.0 | 19.3 | 0.00 | 0.00 | 0.00 | 37 | 1009.2 |
| 20260506234405 | 27 | 346 | 11.3 | 22.5 | 0.00 | 0.00 | 0.00 | 36 | 1009.2 |
| 20260506233905 | 28 | 335 | 8.0 | 19.3 | 0.00 | 0.00 | 0.00 | 35 | 1009.3 |
| 20260506233406 | 28 | 7 | 8.0 | 19.3 | 0.00 | 0.00 | 0.00 | 36 | 1009.2 |
| 20260506232405 | 28 | 328 | 9.7 | 25.7 | 0.00 | 0.00 | 0.00 | 32 | 1009.2 |
| 20260506230905 | 30 | 307 | 4.8 | 9.7 | 0.00 | 0.00 | 0.00 | 34 | 1009.2 |
| 20260506230405 | 30 | 241 | 1.6 | 8.0 | 0.00 | 0.00 | 0.00 | 36 | 1009.2 |
| 20260506225905 | 30 | 210 | 4.8 | 11.3 | 0.00 | 0.00 | 0.00 | 35 | 1009.2 |
| 20260506225406 | 29 | 217 | 3.2 | 8.0 | 0.00 | 0.00 | 0.00 | 36 | 1009.2 |
| 20260506224905 | 29 | 6 | 4.8 | 11.3 | 0.00 | 0.00 | 0.00 | 34 | 1009.3 |
| 20260506224405 | 29 | 246 | 3.2 | 11.3 | 0.00 | 0.00 | 0.00 | 35 | 1009.3 |
| 20260506223905 | 29 | 239 | 4.8 | 11.3 | 0.00 | 0.00 | 0.00 | 36 | 1009.5 |
| 20260506223405 | 29 | 283 | 4.8 | 11.3 | 0.00 | 0.00 | 0.00 | 35 | 1009.5 |
| 20260506222406 | 29 | 168 | 3.2 | 8.0 | 0.00 | 0.00 | 0.00 | 36 | 1009.9 |
| 20260506221905 | 29 | 162 | 6.4 | 11.3 | 0.00 | 0.00 | 0.00 | 35 | 1009.9 |
| 20260506221405 | 30 | 327 | 3.2 | 4.8 | 0.00 | 0.00 | 0.00 | 35 | 1010.1 |
| 20260506220906 | 30 | 46 | 3.2 | 8.0 | 0.00 | 0.00 | 0.00 | 34 | 1010.1 |
| 20260506220405 | 30 | 46 | 3.2 | 8.0 | 0.00 | 0.00 | 0.00 | 34 | 1010.2 |
| 20260506215905 | 31 | 100 | 4.8 | 8.0 | 0.00 | 0.00 | 0.00 | 33 | 1010.3 |
| 20260506215406 | 31 | 123 | 1.6 | 14.5 | 0.00 | 0.00 | 0.00 | 33 | 1010.3 |
| 20260506214905 | 31 | 118 | 3.2 | 11.3 | 0.00 | 0.00 | 0.00 | 34 | 1010.4 |
| 20260506213905 | 30 | 53 | 1.6 | 3.2 | 0.00 | 0.00 | 0.00 | 34 | 1010.4 |
| 20260506212905 | 29 | 49 | 3.2 | 8.0 | 0.00 | 0.00 | 0.00 | 35 | 1010.4 |
| 20260506212405 | 30 | 17 | 3.2 | 4.8 | 0.00 | 0.00 | 0.00 | 35 | 1010.5 |
| 20260506211405 | 30 | 142 | 3.2 | 4.8 | 0.00 | 0.00 | 0.00 | 34 | 1010.5 |
| 20260506210905 | 30 | 133 | 1.6 | 4.8 | 0.00 | 0.00 | 0.00 | 34 | 1010.6 |
| 20260506205405 | 28 | 11 | 4.8 | 11.3 | 0.00 | 0.00 | 0.00 | 36 | 1010.6 |
| 20260506204906 | 28 | 73 | 3.2 | 8.0 | 0.00 | 0.00 | 0.00 | 36 | 1010.6 |
| 20260506204405 | 28 | 37 | 3.2 | 4.8 | 0.00 | 0.00 | 0.00 | 35 | 1010.7 |
| 20260506203906 | 28 | 26 | 3.2 | 9.7 | 0.00 | 0.00 | 0.00 | 34 | 1010.7 |
| 20260506203405 | 28 | 22 | 4.8 | 9.7 | 0.00 | 0.00 | 0.00 | 35 | 1010.8 |
| 20260506202406 | 28 | 340 | 3.2 | 8.0 | 0.00 | 0.00 | 0.00 | 34 | 1011.1 |
| 20260506201905 | 28 | 47 | 1.6 | 4.8 | 0.00 | 0.00 | 0.00 | 34 | 1011.1 |
| 20260506201406 | 28 | 38 | 3.2 | 4.8 | 0.00 | 0.00 | 0.00 | 35 | 1011.2 |
| 20260506200906 | 28 | 36 | 4.8 | 8.0 | 0.00 | 0.00 | 0.00 | 35 | 1011.2 |
| 20260506200406 | 28 | 176 | 3.2 | 4.8 | 0.00 | 0.00 | 0.00 | 34 | 1011.1 |
| 20260506195906 | 28 | 108 | 4.8 | 9.7 | 0.00 | 0.00 | 0.00 | 34 | 1011.2 |
| 20260506195406 | 28 | 123 | 3.2 | 4.8 | 0.00 | 0.00 | 0.00 | 34 | 1011.3 |
| 20260506194905 | 28 | 133 | 1.6 | 8.0 | 0.00 | 0.00 | 0.00 | 34 | 1011.3 |
| 20260506193906 | 27 | 73 | 3.2 | 4.8 | 0.00 | 0.00 | 0.00 | 35 | 1011.6 |
| 20260506193406 | 27 | 84 | 1.6 | 4.8 | 0.00 | 0.00 | 0.00 | 35 | 1011.8 |
| 20260506192906 | 27 | 199 | 1.6 | 4.8 | 0.00 | 0.00 | 0.00 | 35 | 1011.8 |
| 20260506192407 | 27 | 148 | 3.2 | 4.8 | 0.00 | 0.00 | 0.00 | 35 | 1011.8 |
| 20260506191406 | 26 | 265 | 1.6 | 4.8 | 0.00 | 0.00 | 0.00 | 35 | 1012.0 |
| 20260506190906 | 26 | 330 | 1.6 | 4.8 | 0.00 | 0.00 | 0.00 | 36 | 1012.2 |
| 20260506190406 | 25 | 330 | 3.2 | 4.8 | 0.00 | 0.00 | 0.00 | 36 | 1012.3 |
| 20260506185906 | 25 | 358 | 1.6 | 4.8 | 0.00 | 0.00 | 0.00 | 36 | 1012.3 |
| 20260506185406 | 25 | 21 | 3.2 | 4.8 | 0.00 | 0.00 | 0.00 | 35 | 1012.3 |
| 20260506184906 | 25 | 105 | 3.2 | 11.3 | 0.00 | 0.00 | 0.00 | 35 | 1012.4 |
| 20260506184407 | 25 | 131 | 6.4 | 12.9 | 0.00 | 0.00 | 0.00 | 35 | 1012.5 |
| 20260506183906 | 25 | 132 | 3.2 | 12.9 | 0.00 | 0.00 | 0.00 | 35 | 1012.5 |
| 20260506182906 | 25 | 57 | 4.8 | 8.0 | 0.00 | 0.00 | 0.00 | 35 | 1012.7 |
| 20260506182406 | 25 | 349 | 3.2 | 4.8 | 0.00 | 0.00 | 0.00 | 35 | 1012.9 |
| 20260506181907 | 25 | 111 | 3.2 | 4.8 | 0.00 | 0.00 | 0.00 | 33 | 1012.9 |
| 20260506180906 | 25 | 78 | 3.2 | 4.8 | 0.00 | 0.00 | 0.00 | 34 | 1012.9 |
| 20260506180406 | 24 | 105 | 3.2 | 4.8 | 0.00 | 0.00 | 0.00 | 36 | 1012.9 |
| 20260506175906 | 23 | 71 | 1.6 | 4.8 | 0.00 | 0.00 | 0.00 | 37 | 1013.0 |
| 20260506175405 | 23 | 39 | 3.2 | 4.8 | 0.00 | 0.00 | 0.00 | 37 | 1013.1 |
| 20260506174906 | 23 | 15 | 1.6 | 9.7 | 0.00 | 0.00 | 0.00 | 38 | 1013.2 |
| 20260506174406 | 23 | 332 | 3.2 | 9.7 | 0.00 | 0.00 | 0.00 | 39 | 1013.2 |
| 20260506173906 | 22 | 267 | 1.6 | 4.8 | 0.00 | 0.00 | 0.00 | 39 | 1013.2 |
| 20260506173406 | 22 | 332 | 3.2 | 4.8 | 0.00 | 0.00 | 0.00 | 39 | 1013.2 |
| 20260506172906 | 22 | 328 | 6.4 | 12.9 | 0.00 | 0.00 | 0.00 | 39 | 1013.2 |
| 20260506172405 | 22 | 317 | 4.8 | 12.9 | 0.00 | 0.00 | 0.00 | 38 | 1013.2 |
| 20260506171906 | 22 | 348 | 3.2 | 12.9 | 0.00 | 0.00 | 0.00 | 38 | 1013.1 |
| 20260506171405 | 23 | 41 | 3.2 | 8.0 | 0.00 | 0.00 | 0.00 | 41 | 1013.1 |
| 20260506170406 | 22 | 103 | 3.2 | 4.8 | 0.00 | 0.00 | 0.00 | 42 | 1013.1 |
| 20260506165907 | 22 | 282 | 1.6 | 4.8 | 0.00 | 0.00 | 0.00 | 42 | 1013.2 |
| 20260506164406 | 21 | 115 | 3.2 | 4.8 | 0.00 | 0.00 | 0.00 | 45 | 1013.3 |
| 20260506163905 | 21 | 134 | 1.6 | 4.8 | 0.00 | 0.00 | 0.00 | 46 | 1013.2 |
| 20260506163406 | 20 | 131 | 3.2 | 4.8 | 0.00 | 0.00 | 0.00 | 46 | 1013.2 |
| 20260506162906 | 20 | 151 | 3.2 | 4.8 | 0.00 | 0.00 | 0.00 | 46 | 1013.3 |
| 20260506162405 | 20 | 135 | 1.6 | 4.8 | 0.00 | 0.00 | 0.00 | 47 | 1013.3 |
| 20260506161405 | 19 | 218 | 0.0 | 3.2 | 0.00 | 0.00 | 0.00 | 49 | 1013.5 |
| 20260506160906 | 19 | 218 | 1.6 | 3.2 | 0.00 | 0.00 | 0.00 | 49 | 1013.5 |
| 20260506160406 | 19 | 217 | 1.6 | 4.8 | 0.00 | 0.00 | 0.00 | 48 | 1013.6 |
| 20260506155906 | 19 | 131 | 0.0 | 4.8 | 0.00 | 0.00 | 0.00 | 49 | 1013.6 |
| 20260506155406 | 18 | 143 | 3.2 | 4.8 | 0.00 | 0.00 | 0.00 | 50 | 1013.6 |
| 20260506154905 | 18 | 133 | 1.6 | 3.2 | 0.00 | 0.00 | 0.00 | 52 | 1013.7 |
| 20260506154406 | 18 | 147 | 0.0 | 3.2 | 0.00 | 0.00 | 0.00 | 51 | 1013.7 |
| 20260506153905 | 17 | 166 | 1.6 | 4.8 | 0.00 | 0.00 | 0.00 | 52 | 1013.7 |
| 20260506153405 | 17 | 82 | 1.6 | 4.8 | 0.00 | 0.00 | 0.00 | 53 | 1013.7 |
| 20260506152406 | 16 | 109 | 1.6 | 4.8 | 0.00 | 0.00 | 0.00 | 55 | 1013.7 |
| 20260506151905 | 16 | 138 | 1.6 | 4.8 | 0.00 | 0.00 | 0.00 | 56 | 1013.8 |
| 20260506151405 | 16 | 151 | 3.2 | 4.8 | 0.00 | 0.00 | 0.00 | 58 | 1013.9 |
| 20260506150905 | 15 | 109 | 3.2 | 4.8 | 0.00 | 0.00 | 0.00 | 59 | 1013.9 |
| 20260506145906 | 15 | 125 | 4.8 | 4.8 | 0.00 | 0.00 | 0.00 | 62 | 1014.0 |
| 20260506144906 | 13 | 131 | 4.8 | 8.0 | 0.00 | 0.00 | 0.00 | 65 | 1014.1 |
| 20260506144405 | 13 | 143 | 4.8 | 4.8 | 0.00 | 0.00 | 0.00 | 66 | 1014.1 |
| 20260506143905 | 13 | 137 | 4.8 | 4.8 | 0.00 | 0.00 | 0.00 | 67 | 1014.0 |
| 20260506143405 | 13 | 143 | 4.8 | 8.0 | 0.00 | 0.00 | 0.00 | 68 | 1014.1 |
| 20260506142905 | 12 | 125 | 4.8 | 4.8 | 0.00 | 0.00 | 0.00 | 70 | 1014.1 |
| 20260506142404 | 12 | 124 | 4.8 | 8.0 | 0.00 | 0.00 | 0.00 | 71 | 1014.3 |
| 20260506141905 | 12 | 107 | 3.2 | 8.0 | 0.00 | 0.00 | 0.00 | 72 | 1014.3 |
| 20260506140905 | 11 | 129 | 1.6 | 3.2 | 0.00 | 0.00 | 0.00 | 76 | 1014.3 |
| 20260506140405 | 10 | 129 | 0.0 | 3.2 | 0.00 | 0.00 | 0.00 | 77 | 1014.3 |
| 20260506135905 | 10 | 140 | 1.6 | 4.8 | 0.00 | 0.00 | 0.00 | 78 | 1014.2 |
| 20260506135405 | 9 | 152 | 3.2 | 8.0 | 0.00 | 0.00 | 0.00 | 79 | 1014.2 |
| 20260506134905 | 9 | 175 | 4.8 | 9.7 | 0.00 | 0.00 | 0.00 | 79 | 1014.3 |
| 20260506134406 | 8 | 172 | 3.2 | 4.8 | 0.00 | 0.00 | 0.00 | 80 | 1014.1 |
| 20260506133405 | 8 | 149 | 6.4 | 9.7 | 0.00 | 0.00 | 0.00 | 82 | 1014.1 |
| 20260506132905 | 7 | 164 | 4.8 | 8.0 | 0.00 | 0.00 | 0.00 | 83 | 1014.0 |
| 20260506132405 | 7 | 192 | 4.8 | 8.0 | 0.00 | 0.00 | 0.00 | 84 | 1013.9 |
| 20260506131905 | 7 | 201 | 3.2 | 4.8 | 0.00 | 0.00 | 0.00 | 84 | 1013.8 |
| 20260506131406 | 7 | 161 | 1.6 | 3.2 | 0.00 | 0.00 | 0.00 | 83 | 1013.8 |
| 20260506130405 | 7 | 178 | 0.0 | 3.2 | 0.00 | 0.00 | 0.00 | 83 | 1013.7 |
| 20260506125905 | 7 | 176 | 1.6 | 3.2 | 0.00 | 0.00 | 0.00 | 83 | 1013.7 |
| 20260506125405 | 7 | 178 | 1.6 | 3.2 | 0.00 | 0.00 | 0.00 | 83 | 1013.7 |